Location: Boiro
(42.6475°N, 8.8834°W)
Time: 07:31:41
(UTC+02:00)

NANOSAT C BR1 - Pass Details

Date: 25 August 2022
Orbit: 582 x 600 km, 98.0° (Epoch: 25 September)

Event Time Altitude Azimuth Distance (km) Brightness Sun altitude
Rises 04:43:56 0° 14° (NNE) 2,829 ? -29.3°
Reaches altitude 10° 04:46:07 10° 17° (NNE) 1,920 ? -29.0°
Enters shadow 04:48:54 41° 27° (NNE) 860 ? -28.7°
